Flag for Canada Weather past 2 weeks in Kugluktuk, Nunavut Territory, Canada

Now
-8 °F

Low level haze.


Feels Like: -31 °F
Forecast: -13 / -9 °F
Wind: 18 mph from Northwest

Location: Coppermine

Current Time: Feb 28, 2015 at 12:29:48 AM

Latest Report: Feb 28, 2015 at 12:00 AM


Visibility: 12 mi

Pressure: 30.07 "Hg

Humidity: 70%

Dew point: -15 °F

Location of KugluktukLocation

Historic Weather in Kugluktuk — Graph

°F

Kugluktuk temperature yesterday

Maximum temperature yesterday: 18 °F (at 12:00 PM)
Minimum temperature yesterday: -8 °F (at 9:00 PM)
Average temperature yesterday: 8 °F

Past Weeks' High & Low Weather Summary

 TemperatureHumidityPressure
High18 °F (Feb 27, 12:00 PM)92% (Feb 27, 6:00 AM)30.80 "Hg (Feb 27, 6:00 AM)
Low-40 °F (Feb 12, 11:00 PM)61% (Feb 13, 2:00 PM)29.68 "Hg (Feb 27, 12:00 PM)
Average-10 °F75%30.33 "Hg
* Reported Feb 12 11:00 PM — Feb 27 11:00 PM, Kugluktuk, Weather by CustomWeather, © 2015

Note: Actual official high and low records may vary slightly from our data, if they occured in-between our weather recording intervals... More about our weather records

Advertising

Kugluktuk weather history for previous 24 hours

 ConditionsComfort  
Time TempWeatherWind HumidityBarometerVisibility
11:00 PM
Fri, Feb 27
-8 °FPassing clouds.13 mphN/A30.06 "Hg12 mi
10:00 PM-8 °FLow level haze.21 mph70%30.02 "Hg12 mi
9:00 PM-8 °FPassing clouds.13 mph70%30.00 "Hg15 mi
8:00 PM-6 °FPassing clouds.10 mph70%29.98 "Hg15 mi
7:00 PM-6 °FLow level haze.6 mph77%29.94 "Hg15 mi
6:00 PM-2 °FLow level haze.33 mph71%29.89 "Hg15 mi
5:00 PM0 °FLow level haze.29 mph71%29.87 "Hg15 mi
4:00 PM1 °FLow level haze.23 mph65%29.86 "Hg15 mi
3:00 PM3 °FPassing clouds.23 mph78%29.81 "Hg15 mi
2:00 PM10 °FScattered clouds.33 mph79%29.74 "Hg8 mi
1:00 PM18 °FOvercast.28 mph79%29.69 "Hg15 mi
12:00 PM18 °FPartly sunny.31 mph79%29.68 "Hg15 mi
11:00 AM16 °FPartly sunny.28 mph86%29.70 "Hg15 mi
10:00 AM16 °FLow level haze.30 mph79%29.70 "Hg15 mi
9:00 AM14 °FPassing clouds.33 mph85%29.71 "Hg5 mi
8:00 AM14 °FOvercast.31 mph92%29.73 "Hg10 mi
7:51 AM14 °FOvercast.32 mph92%29.74 "Hg10 mi
7:00 AM16 °FLight snow. Overcast.35 mph86%29.75 "Hg1 mi
6:51 AM16 °FLight snow. Overcast.36 mph86%29.75 "Hg1 mi
6:00 AM14 °FLight snow. Overcast.28 mph92%29.78 "Hg3 mi
5:00 AM12 °FLight snow. Mostly cloudy.17 mph85%29.82 "Hg8 mi
4:56 AM12 °FLight snow. Mostly cloudy.18 mph85%29.82 "Hg8 mi
4:00 AM10 °FLight snow. Overcast.24 mph79%29.85 "Hg2 mi
3:46 AM10 °FLight snow. Overcast.25 mph79%29.85 "Hg2 mi
3:00 AM7 °FPassing clouds.24 mph78%29.87 "Hg10 mi
2:00 AM9 °FPassing clouds.24 mph78%29.89 "Hg8 mi
1:00 AM9 °FPassing clouds.21 mph78%29.91 "Hg5 mi
12:00 AM10 °FPassing clouds.31 mph85%29.93 "Hg5 mi
Weather by CustomWeather, © 2015

See weather overviewHow to use our weather pages